User: anonymous   Login
Location: Maiden
(35.5760°N, 81.2120°W)
Time: 19:21:16
(UTC-04:00)
Language:

Cosmos 2151 - Orbit

View from above orbital plane
View from above orbital plane
View from above satellite
View from above satellite

Ground track
Ground track

The orbit data is extracted from the following two-line orbital elements,

1 21422U 91042A   15214.88363343  .00000746  00000-0  72267-4 0  9993
2 21422 082.5014 177.4010 0015972 062.0364 298.2470 14.91256231306496
Epoch (UTC): 02 August 2015 21:12:25
Eccentricity: 0.0015972
inclination: 82.5014°
perigee height: 583 km
apogee height: 605 km
right ascension of ascending node: 177.4010°
argument of perigee: 62.0364°
revolutions per day: 14.91256231
mean anomaly at epoch: 298.2470°
orbit number at epoch: 30649

The dashed part of the orbit path shows where the satellite is in the earth's shadow,  

DLR